DateTimeUTC,F1_A11,F1_S11,BsB_S11,BsG_S11,BsR_S11,BbsB_S11,BbsG_S11,BbsR_S11,BaB_A11,BaG_A11,BaR_A11,Tu_S11,T_S11,Uu_S11,U_S11,P_S11,T1_A11
2021-08-09T16:00:00Z,00000200,20000000,,,,,,,0000.17,0000.42,-000.13,19.2,25.7,09.9,06.7,0670.2,31.0
2021-08-09T16:01:00Z,00000200,20000000,,,,,,,-000.22,-000.35,-000.39,19.2,25.7,09.8,06.6,0670.2,31.0
2021-08-09T16:02:00Z,00000200,20000000,,,,,,,0000.14,-000.43,-000.01,19.2,25.7,09.7,06.5,0670.2,31.0
2021-08-09T16:03:00Z,00000200,60000000,,,,,,,-000.51,-000.02,-000.15,19.2,25.7,09.7,06.5,0670.2,31.0
2021-08-09T16:04:00Z,00000200,40000000,0002.20,0001.30,0000.90,0000.21,0000.17,0000.02,0000.52,0000.62,0000.23,19.3,25.6,09.6,06.5,0671.1,31.0
2021-08-09T16:05:00Z,00000200,00000000,0002.06,0001.10,0000.89,0000.17,0000.14,-000.10,0000.07,-000.15,-000.00,19.4,25.5,09.5,06.5,0671.1,31.0
2021-08-09T16:06:00Z,00000200,00000000,0001.14,0001.26,0000.67,0000.21,0000.44,0000.03,0000.22,0000.81,0000.78,19.4,25.5,09.5,06.5,0671.2,31.0
2021-08-09T16:07:00Z,00000200,00000000,0001.38,0000.87,0000.60,0000.45,-000.20,0000.15,0000.35,-000.17,0000.12,19.4,25.5,09.6,06.6,0671.1,31.0
2021-08-09T16:08:00Z,00000200,00000000,0001.37,0000.96,0000.87,0000.20,0000.05,-000.02,0000.17,0000.14,0000.16,19.4,25.5,09.6,06.6,0671.2,31.0
2021-08-09T16:09:00Z,00000200,00000000,0001.44,0000.94,0001.08,0000.07,0000.07,0000.24,0000.61,0000.71,-000.00,19.4,25.5,09.7,06.7,0671.2,31.0
2021-08-09T16:10:00Z,00000200,00000000,0001.80,0001.09,0000.74,0000.88,0000.21,0000.23,0000.27,0000.05,0000.68,19.4,25.5,09.8,06.8,0671.3,31.0
2021-08-09T16:11:00Z,00000200,00000000,0001.41,0001.15,0000.68,0000.33,0000.09,0000.26,0000.30,0000.66,0000.10,19.4,25.5,09.9,06.8,0671.2,31.0
2021-08-09T16:12:00Z,00000200,00000000,0001.60,0001.08,0000.81,0001.17,-000.06,0000.19,-000.01,-000.22,0000.20,19.5,25.5,09.9,06.8,0671.2,31.0
2021-08-09T16:13:00Z,00000200,00000000,0001.64,0000.76,0001.10,-000.10,0000.28,-000.11,-000.14,-000.09,0000.19,19.5,25.5,09.6,06.6,0671.2,31.0
2021-08-09T16:14:00Z,00000200,00000000,0001.11,0001.17,0000.76,0000.43,0000.50,0000.14,0000.42,0000.19,0000.05,19.5,25.5,09.7,06.7,0671.1,31.1
2021-08-09T16:15:00Z,00000200,00000000,0001.90,0001.18,0000.66,0000.75,0000.01,0000.07,-000.04,0000.27,-000.06,19.5,25.5,09.6,06.7,0671.2,31.0
2021-08-09T16:16:00Z,00000200,00000000,0001.37,0000.74,0000.91,0001.29,0000.11,0000.33,0000.23,-000.02,0000.39,19.5,25.5,09.6,06.7,0671.2,31.0
2021-08-09T16:17:00Z,00000200,00000000,0001.36,0001.04,0000.56,0000.40,-000.01,0000.01,-000.09,0000.31,-000.16,19.5,25.5,09.6,06.6,0671.2,31.0
2021-08-09T16:18:00Z,00000200,00000000,0001.01,0001.23,0000.71,0000.16,0000.11,0000.02,0000.51,0000.07,0000.38,19.5,25.5,09.6,06.6,0671.1,31.0
2021-08-09T16:19:00Z,00000200,00000000,0002.07,0001.32,0000.84,0000.04,0000.46,0000.13,-000.78,-000.72,-000.87,19.5,25.5,09.4,06.5,0671.1,31.1
2021-08-09T16:20:00Z,00000200,00000000,0002.01,0001.38,0000.94,0000.05,0000.47,0000.30,-000.42,-000.01,-000.12,19.5,25.5,09.2,06.3,0671.1,31.1
2021-08-09T16:21:00Z,00000200,00000000,0002.56,0001.80,0001.21,0001.02,0000.21,0000.24,0000.53,0000.27,0000.29,19.5,25.5,08.7,06.0,0671.1,31.0
2021-08-09T16:22:00Z,00000200,00000000,0002.63,0001.40,0001.14,0000.62,0000.16,0000.18,0000.22,0000.29,0000.84,19.5,25.5,08.9,06.2,0671.2,31.0
2021-08-09T16:23:00Z,00000200,00000000,0001.86,0001.50,0000.64,0000.36,0000.14,-000.11,0001.29,0001.02,0001.00,19.5,25.5,09.3,06.4,0671.2,31.0
2021-08-09T16:24:00Z,00000200,00000000,0001.77,0001.06,0000.66,0001.28,0000.06,0000.23,0000.48,0000.49,0000.08,19.5,25.5,09.6,06.6,0671.3,31.0
2021-08-09T16:25:00Z,00000200,00000000,0001.57,0000.72,0000.92,0000.07,0000.19,0000.08,-000.04,0000.24,0000.08,19.5,25.5,09.6,06.6,0671.2,31.0
2021-08-09T16:26:00Z,00000200,00000000,0002.11,0000.90,0000.59,0000.32,0000.20,0000.04,0000.05,-000.32,0000.05,19.5,25.5,09.5,06.6,0671.2,31.0
2021-08-09T16:27:00Z,00000200,00000000,0002.15,0001.15,0000.57,-000.48,0000.05,-000.06,0000.26,0000.40,0000.31,19.5,25.5,09.4,06.5,0671.2,31.1
2021-08-09T16:28:00Z,00000200,00000000,0001.40,0001.18,0000.58,0000.06,0000.03,0000.38,0000.49,0000.24,0000.46,19.5,25.5,09.5,06.5,0671.3,31.0
2021-08-09T16:29:00Z,00000200,00000000,0000.73,0000.97,0000.68,0000.59,0000.08,0000.19,0000.26,0000.40,0000.50,19.5,25.5,09.6,06.6,0671.2,31.0
2021-08-09T16:30:00Z,00000200,00000000,0001.96,0001.06,0000.73,0000.42,0000.07,-000.21,0000.40,0000.85,0000.00,19.5,25.5,09.6,06.6,0671.3,31.0
2021-08-09T16:31:00Z,00000200,00000000,0001.42,0000.94,0000.58,0000.72,-000.06,-000.29,0000.47,0000.24,0000.48,19.5,25.5,09.7,06.7,0671.3,31.0
2021-08-09T16:32:00Z,00000200,00000000,0001.50,0000.58,0000.78,0000.49,0000.14,-000.35,0000.11,0000.48,0000.19,19.5,25.5,09.9,06.8,0671.3,31.0
2021-08-09T16:33:00Z,00000200,00000000,0001.70,0000.92,0000.16,0000.21,-000.15,0000.08,-000.21,-000.68,-000.07,19.5,25.5,09.8,06.8,0671.3,31.0
2021-08-09T16:34:00Z,00000200,00000000,0001.62,0001.20,0001.09,0000.37,0000.35,0000.29,0000.75,0000.52,0000.37,19.5,25.5,09.7,06.7,0671.2,31.0
2021-08-09T16:35:00Z,00000200,00000000,0001.46,0001.33,0000.35,0000.02,0000.17,-000.14,-000.06,0000.16,-000.08,19.5,25.5,09.7,06.7,0671.3,31.0
2021-08-09T16:36:00Z,00000200,00000000,0001.40,0000.89,0000.82,0000.54,0000.08,-000.07,0000.30,0000.04,0000.39,19.5,25.5,09.7,06.7,0671.3,31.0
2021-08-09T16:37:00Z,00000200,00000000,0001.49,0001.09,0000.94,0000.47,0000.24,0000.09,-000.04,0000.06,0000.31,19.5,25.5,09.7,06.7,0671.2,31.0
2021-08-09T16:38:00Z,00000200,00000000,0001.55,0001.66,0001.03,0000.04,0000.45,0000.15,-000.75,-000.69,-001.19,19.5,25.5,09.6,06.6,0671.2,31.0
2021-08-09T16:39:00Z,00000200,00000000,0002.01,0001.56,0000.99,0000.23,0000.28,0000.30,-000.11,0000.18,0000.42,19.5,25.5,09.2,06.4,0671.2,31.0
2021-08-09T16:40:00Z,00000200,00000000,0001.57,0001.54,0000.92,0000.27,-000.07,-000.35,-000.42,-000.25,-000.14,19.5,25.6,09.2,06.4,0671.2,31.1
2021-08-09T16:41:00Z,00000200,00000000,0001.60,0001.29,0000.95,0000.32,-000.03,0000.31,0000.82,0000.41,0000.12,19.5,25.5,08.9,06.2,0671.2,31.0
2021-08-09T16:42:00Z,00000200,00000000,0000.66,0001.35,0000.84,0000.54,0000.44,0000.30,0000.36,0000.58,0000.47,19.5,25.6,09.1,06.3,0671.2,31.0
2021-08-09T16:43:00Z,00000200,00000000,0001.57,0001.26,0000.64,0000.43,-000.16,0000.08,0000.82,0000.39,0000.85,19.5,25.5,09.4,06.5,0671.2,31.0
2021-08-09T16:44:00Z,00000200,00000000,0001.59,0000.94,0000.74,0000.33,0000.10,0000.37,-000.26,0000.12,0000.15,19.5,25.5,09.4,06.5,0671.2,31.0
2021-08-09T16:45:00Z,00000200,00000000,0001.50,0001.21,0000.52,0000.16,0000.28,-000.49,0000.69,0000.45,0000.28,19.5,25.5,09.5,06.6,0671.3,31.0
2021-08-09T16:46:00Z,00000200,00000000,0001.47,0001.16,0001.00,0000.27,-000.14,0000.20,-000.27,-000.19,0000.19,19.5,25.5,09.5,06.6,0671.2,31.0
2021-08-09T16:47:00Z,00000200,00000000,0001.93,0001.89,0000.89,0001.05,0000.39,0000.33,-000.17,0000.01,-000.33,19.5,25.5,09.3,06.5,0671.2,31.0
2021-08-09T16:48:00Z,00000200,00000000,0002.76,0001.43,0000.72,0000.16,0000.05,0000.10,0000.90,0000.68,0000.70,19.5,25.5,09.4,06.5,0671.2,31.0
2021-08-09T16:49:00Z,00000200,00000000,0001.48,0001.12,0000.89,0000.21,-000.03,0000.29,0000.08,0000.34,-000.02,19.5,25.5,09.5,06.5,0671.2,31.0
2021-08-09T16:50:00Z,00000200,00000000,0002.02,0001.44,0000.70,0000.55,0000.08,-000.19,-000.18,-000.32,-000.09,19.5,25.6,09.3,06.4,0671.2,31.0
2021-08-09T16:51:00Z,00000200,00000000,0001.00,0001.26,0000.71,0000.34,0000.05,0000.53,0000.46,0000.46,0000.63,19.5,25.5,09.3,06.5,0671.3,31.0
2021-08-09T16:52:00Z,00000200,00000000,0002.29,0001.60,0000.91,0000.51,0000.21,-000.03,0000.36,0000.18,0000.49,19.5,25.5,09.4,06.5,0671.2,31.0
2021-08-09T16:53:00Z,00000200,00000000,0002.30,0001.41,0000.99,0000.99,0000.29,0000.04,0000.22,0000.23,0000.00,19.5,25.6,09.3,06.4,0671.2,31.0
2021-08-09T16:54:00Z,00000200,00000000,0002.47,0001.22,0001.24,0000.45,0000.22,0000.20,0000.18,0000.47,0000.25,19.5,25.5,09.3,06.4,0671.2,31.0
2021-08-09T16:55:00Z,00000200,00000000,0002.07,0001.19,0000.98,0001.07,0000.30,0000.56,0000.70,0000.29,0000.35,19.5,25.6,09.5,06.6,0671.3,31.0
2021-08-09T16:56:00Z,00000200,00000000,0002.46,0001.50,0000.98,0000.92,-000.15,0000.18,-000.09,-000.09,0000.02,19.5,25.5,09.5,06.5,0671.3,31.1
2021-08-09T16:57:00Z,00000200,40000000,,,,,,,0000.41,0000.68,0000.40,19.6,25.6,09.8,06.8,0671.4,31.1
2021-08-09T16:58:00Z,00000200,60000000,,,,,,,-000.17,0000.01,0000.05,19.3,25.7,09.6,06.5,0670.3,31.0
2021-08-09T16:59:00Z,00000200,20000000,,,,,,,-000.19,-000.44,-000.05,19.3,25.8,09.6,06.5,0670.3,31.0
